Weather in Druzhnaya Gorka

Russia / Saint-Petersburg and Leningrad Oblast     59°16′54″N   30°07′20″E
temp.,
°C
wind,
m/s
gust,
m/s
humid.,
%
clouds,
%
prec.,
mm/h
press.,
hPa
HPBL,
m
7 may, fri
fri700:00+5sw51092100 0.3 996983
03:00+4sw51197100 0.6 998994
06:00+4sw5990100 0.4 999958
09:00+4ssw5996100 0.6 1000868
12:00+4ssw51197100 0.3 1002700
15:00+5ssw4109592 0.3 1003732
18:00+8wsw477665 0.3 10031098
21:00+4ssw1192100 0.4 100410
8 may, sat
sat800:00+3s1194100 0.0 100414
03:00+3ne0096100 0.2 100310
06:00+4sw1296100 0.0 100366
09:00+4wnw2495100 0.3 1003665
12:00+4wsw2597100 3.0 1005685
15:00+7wnw468097 6.7 10071032
18:00+5wnw478193 0.5 1009750
21:00+3wnw38885 0.5 1011248
9 may, sun
sun900:000w28934 0.0 1012192
03:000w310960 0.0 1013234
06:00+1w39945 0.0 1015246
09:00+7w35620 0.0 1016725
12:00+11w45415 0.0 10171766
15:00+12wsw463696 0.0 10182085
18:00+12wsw364393 0.0 10181994
21:00+7s2365100 0.0 101946
10 may, mon
mon1000:00+6ssw2676100 0.0 1019127
03:00+6s41389100 0.6 1020683
06:00+6ssw51387100 1.0 1019572
09:00+11ssw512796 1.0 1020591
12:00+17sw585584 0.0 10211061
15:00+20sw584730 0.0 10221642
18:00+19ssw4855100 0.0 10221425
21:00+14s31176100 0.0 1024316
11 may, tue
tue1100:00+12ssw4138114 0.0 1025406
03:00+10ssw31387100 0.0 1025370
06:00+10s3128590 0.0 1026367
09:00+15ssw510585 0.0 1026624
12:00+19s584415 0.0 10261171
15:00+21s58400 0.0 10251435
18:00+20s47485 0.0 10241243
21:00+14s28759 0.0 1025168